Nogales, AZ

5:13 PM MST on September 21, 2017 (GMT -0700)
Nogales International

Weather History for KOLS - August, 2013

Change the Weather History Date:

Monday, August 26, 2013

  Actual Average (KFHU) Record (KFHU)
Temperature  
Mean Temperature 78 °F -  
Max Temperature 91 °F 87 °F 98 °F (2002)
Min Temperature 66 °F 68 °F 55 °F (1987)
Cooling Degree Days 14    
Growing Degree Days 28 (Base 50)    
Moisture  
Dew Point 64 °F    
Average Humidity 72    
Maximum Humidity 90    
Minimum Humidity 34    
Precipitation  
Precipitation 0.58 in - - ()
Sea Level Pressure  
Sea Level Pressure 29.92 in    
Wind  
Wind Speed 6 mph (ENE)    
Max Wind Speed 26 mph    
Max Gust Speed 44 mph    
Visibility 8 miles    
Events Rain , Thunderstorm    
Averages and records for this station are not official NWS values.
T = Trace of Precipitation, MM = Missing Value Source: NWS Daily Summary

Daily Weather History Graph

Daily Weather History Graph

Search for Another Location

Airport or City:

Trip Planner

Search our weather history database for the weather conditions in past years. The results will help you decide how hot, cold, wet, or windy it might be!

Date:

Astronomy

Aug. 26, 2013 Rise Set
Actual Time 5:55 AM MST 6:53 PM MST
Civil Twilight 5:30 AM MST 7:18 PM MST
Nautical Twilight 5:01 AM MST 7:48 PM MST
Astronomical Twilight 4:30 AM MST 8:18 PM MST
Moon 10:33 PM MST (8/26) 11:34 AM MST (8/26)
Length of Visible Light 13h 47m
Length of Day
12h 58m
Waning Gibbous, 65% of the Moon is Illuminated
Aug 26
Waning Gibbous
Aug 28
Last Quarter
Sep 5
New
Sep 12
First Quarter
Sep 19
Full

Hourly Weather History & Observations

Time (MST) Temp. Heat Index Dew Point Humidity Pressure Visibility Wind Dir Wind Speed Gust Speed Precip Events Conditions
12:54 AM 68.0 °F - 64.9 °F 90% 29.90 in 10.0 mi ESE 3.5 mph - N/A   Scattered Clouds
1:54 AM 68.0 °F - 64.0 °F 87% 29.91 in 10.0 mi Calm Calm - N/A   Mostly Cloudy
2:54 AM 69.1 °F - 64.9 °F 87% 29.92 in 10.0 mi Calm Calm - N/A   Overcast
3:54 AM 68.0 °F - 64.9 °F 90% 29.90 in 10.0 mi NNE 4.6 mph - N/A   Clear
4:54 AM 69.1 °F - 64.9 °F 87% 29.89 in 10.0 mi Calm Calm - N/A   Clear
5:54 AM 66.9 °F - 64.0 °F 90% 29.91 in 10.0 mi Calm Calm - N/A   Clear
6:54 AM 66.9 °F - 64.0 °F 90% 29.93 in 10.0 mi ENE 4.6 mph - N/A   Clear
7:54 AM 71.1 °F - 66.0 °F 84% 29.93 in 10.0 mi Calm Calm - N/A   Clear
8:54 AM 78.1 °F - 64.9 °F 64% 29.92 in 10.0 mi Calm Calm - N/A   Clear
9:54 AM 81.0 °F 82.7 °F 64.9 °F 58% 29.92 in 10.0 mi Calm Calm - N/A   Clear
10:54 AM 87.1 °F 87.8 °F 63.0 °F 44% 29.89 in 10.0 mi Variable 3.5 mph - N/A   Clear
11:54 AM 91.0 °F 90.9 °F 61.0 °F 36% 29.86 in 10.0 mi ENE 4.6 mph - N/A   Clear
12:38 PM 91.0 °F 90.2 °F 59.0 °F 34% 30.05 in 10.0 mi North - - N/A Thunderstorm Mostly Cloudy
12:54 PM 86.0 °F 86.1 °F 61.0 °F 43% 29.86 in 10.0 mi SSE 20.7 mph 28.8 mph 0.00 in Rain Light Rain
1:02 PM 75.9 °F - 63.0 °F 64% 30.07 in 3.0 mi SE 15.0 mph 28.8 mph 0.03 in Rain , Thunderstorm Heavy Thunderstorms and Rain
1:10 PM 73.9 °F - 61.0 °F 64% 30.07 in 1.8 mi ESE 26.5 mph 38.0 mph 0.11 in Rain , Thunderstorm Heavy Thunderstorms and Rain
1:20 PM 72.0 °F - 62.1 °F 71% 30.08 in 1.0 mi East 18.4 mph 33.4 mph 0.31 in Rain , Thunderstorm Heavy Thunderstorms and Rain
1:35 PM 72.0 °F - 63.0 °F 73% 30.06 in 3.0 mi ENE 18.4 mph 24.2 mph 0.45 in Rain , Thunderstorm Light Thunderstorms and Rain
1:54 PM 73.0 °F - 64.0 °F 73% 29.87 in 10.0 mi ENE 13.8 mph - 0.47 in Rain , Thunderstorm Light Rain
2:32 PM 75.0 °F - 63.0 °F 66% 30.03 in 6.0 mi ESE 24.2 mph 36.8 mph 0.03 in Rain , Thunderstorm Light Thunderstorms and Rain
2:36 PM 73.0 °F - 61.0 °F 66% 30.04 in 1.8 mi East 19.6 mph 43.7 mph 0.07 in Rain , Thunderstorm Heavy Thunderstorms and Rain
2:45 PM 75.0 °F - 61.0 °F 62% 30.03 in 3.0 mi ENE 9.2 mph 27.6 mph 0.10 in Rain , Thunderstorm Thunderstorms and Rain
2:54 PM 71.1 °F - 63.0 °F 75% 29.85 in 8.0 mi NNE 6.9 mph - 0.11 in Rain , Thunderstorm Light Rain
3:02 PM 72.0 °F - 64.0 °F 76% 30.02 in 10.0 mi East 10.4 mph - 0.00 in Rain Light Rain
3:54 PM 73.9 °F - 64.9 °F 73% 29.82 in 10.0 mi NW 10.4 mph - 0.00 in Rain Light Rain
4:54 PM 75.9 °F - 64.9 °F 69% 29.81 in 10.0 mi WNW 4.6 mph - 0.00 in   Clear
5:54 PM 75.0 °F - 66.9 °F 76% 29.84 in 10.0 mi Calm Calm - N/A   Clear
6:54 PM 75.0 °F - 63.0 °F 66% 29.85 in 10.0 mi Calm Calm - N/A   Partly Cloudy
7:54 PM 72.0 °F - 66.0 °F 81% 29.85 in 10.0 mi Calm Calm - N/A   Clear
8:54 PM 70.0 °F - 64.9 °F 84% 29.85 in 10.0 mi East 4.6 mph - 0.00 in Rain Light Rain
9:54 PM 70.0 °F - 64.0 °F 81% 29.85 in 10.0 mi Calm Calm - 0.00 in   Partly Cloudy
10:54 PM 68.0 °F - 64.9 °F 90% 29.83 in 10.0 mi Calm Calm - N/A   Clear
11:54 PM 69.1 °F - 64.0 °F 84% 29.82 in 10.0 mi Calm Calm - N/A   Clear